Powrót do katalogu

ONEWEB-0011

AktywnyŁącznośćPO
NORAD 44062·PAYLOAD·🇬🇧 United Kingdom

Wystrzelony Feb 27, 2019 z Guiana Space Centre

Loading…

Następne Przeloty (najbliższe 24 godziny)

TLE

ŚwieżeSource: CelesTrak SupGP

Epoka: Sep 14, 2026, 18:33 UTC

1 44062C 19010F   26257.77345322  .00001224  00000+0  32562-2 0  2577
2 44062  87.8990 241.3403 0001823  85.3455   3.4519 13.15546303    14

Śledź ONEWEB-0011 w czasie rzeczywistym z AllMySat

Download on the App Store